EW5887 Weather Reports


Display with metric or nautical units.
time (UTC)temp
F
wind
direction
speed
MPH
gust
MPH
rain 1hr
in
rain 24hr
in
rain mn
in
humidity
%
barometer
mb
20181118043043 48 159 23.0 40.0 0.20 1.76 0.69 99 1008.7
20181118041528 48 153 26.0 39.0 0.20 1.70 0.63 98 1008.6
20181118040036 48 150 26.0 45.0 0.20 1.65 0.57 98 1008.4
20181118034518 49 150 30.0 45.0 0.19 1.65 0.52 99 1008.4
20181118033033 49 151 27.0 46.0 0.20 1.61 0.49 99 1008.4
20181118031516 49 138 28.0 46.0 0.18 1.56 0.43 98 1008.2
20181118030013 49 166 30.0 45.0 0.17 1.50 0.38 98 1008.2
20181118024516 49 137 29.0 44.0 0.17 1.52 0.33 98 1008.0
20181118023012 49 141 34.0 49.0 0.14 1.48 0.28 99 1008.1
20181118021508 49 162 31.0 47.0 0.11 1.43 0.24 98 1007.9
20181118020013 49 141 34.0 46.0 0.09 1.39 0.20 98 1007.7
20181118014504 49 146 33.0 50.0 0.10 1.41 0.16 98 1007.7
20181118013003 49 160 32.0 50.0 0.13 1.40 0.15 98 1007.8
20181118011501 49 146 33.0 49.0 0.13 1.39 0.13 98 1007.7
20181118010135 49 144 29.0 44.0 0.10 1.35 0.10 98 1007.8
20181118004655 49 163 34.0 47.0 0.06 1.39 0.06 98 1007.8
20181118003224 49 133 33.0 47.0 0.04 1.36 0.02 98 1007.7
20181118001717 49 141 28.0 51.0 0.05 1.35 0.01 98 1007.8
20181118000202 49 151 31.0 50.0 0.05 1.34 0.00 98 1008.0
20181117234746 49 138 29.0 49.0 0.05 1.45 1.33 98 1008.1
20181117233117 49 132 25.0 51.0 0.04 1.44 1.32 98 1008.2
20181117231632 49 129 25.0 42.0 0.02 1.42 1.30 98 1008.1
20181117230140 49 143 30.0 46.0 0.01 1.41 1.29 98 1008.1
20181117224815 49 123 37.0 49.0 0.01 1.54 1.28 98 1008.0
20181117223133 49 129 33.0 52.0 0.01 1.54 1.28 98 1008.2
20181117220154 49 138 27.0 46.0 0.02 1.54 1.28 99 1008.1
20181117214740 49 126 29.0 45.0 0.01 1.72 1.28 99 1008.1
20181117213136 49 130 29.0 48.0 0.01 1.72 1.28 99 1008.2
20181117211616 49 132 31.0 46.0 0.01 1.72 1.27 99 1008.1
20181117210118 49 128 26.0 41.0 0.02 1.72 1.27 99 1008.3
20181117204659 48 132 30.0 43.0 0.02 1.93 1.27 99 1008.5
20181117203056 48 136 29.0 43.0 0.03 1.93 1.27 99 1008.6
20181117201622 48 134 31.0 43.0 0.06 1.92 1.26 99 1008.4
20181117200102 48 134 28.0 44.0 0.07 1.91 1.25 99 1008.5
20181117194557 48 136 29.0 41.0 0.08 2.10 1.24 99 1008.4
20181117193103 48 162 31.0 46.0 0.09 2.09 1.24 99 1008.5
20181117191710 48 152 28.0 46.0 0.06 2.06 1.20 99 1008.4
20181117190102 48 152 33.0 48.0 0.04 2.04 1.18 99 1008.2
20181117184553 49 161 27.0 45.0 0.03 2.25 1.17 99 1008.2
20181117183112 49 153 29.0 45.0 0.02 2.24 1.14 99 1008.2
20181117181539 49 163 30.0 43.0 0.01 2.23 1.13 99 1008.1
20181117180104 49 133 27.0 41.0 0.01 2.23 1.13 99 1008.3
20181117174610 49 157 30.0 47.0 0.00 2.31 1.12 99 1008.3
20181117173055 49 140 26.0 43.0 0.02 2.31 1.12 99 1008.3
20181117171559 49 140 27.0 44.0 0.02 2.31 1.12 99 1008.1
20181117170045 49 127 29.0 43.0 0.05 2.31 1.12 99 1008.0
20181117164537 49 154 30.0 48.0 0.08 2.34 1.12 99 1007.8
20181117163101 49 138 32.0 47.0 0.09 2.31 1.12 99 1007.7
20181117161524 49 150 25.0 38.0 0.12 2.31 1.11 99 1007.5
20181117160021 49 145 30.0 40.0 0.12 2.29 1.09 99 1007.5
20181117154521 49 142 31.0 46.0 0.11 2.25 1.06 98 1007.3
20181117153013 49 141 29.0 43.0 0.11 2.24 1.03 98 1007.5
20181117151521 49 146 30.0 48.0 0.09 2.20 0.99 98 1007.5
20181117150138 49 141 28.0 42.0 0.09 2.17 0.97 98 1007.3
20181117144632 49 148 29.0 48.0 0.09 2.15 0.94 99 1007.3
20181117143211 49 125 29.0 45.0 0.09 2.13 0.92 99 1007.2
20181117141633 49 134 34.0 50.0 0.09 2.10 0.90 99 1007.1
20181117140222 49 134 29.0 46.0 0.10 2.09 0.88 99 1007.0
20181117134650 49 132 35.0 50.0 0.11 2.06 0.86 98 1006.9
20181117133245 49 150 31.0 45.0 0.11 2.04 0.83 98 1007.0
20181117131621 49 152 31.0 52.0 0.09 2.02 0.81 98 1007.0
20181117130122 49 136 27.0 44.0 0.07 1.98 0.77 98 1006.7
20181117124721 49 165 33.0 45.0 0.06 1.95 0.75 98 1006.6
20181117123156 49 133 34.0 51.0 0.06 1.93 0.72 98 1006.6
20181117121734 49 134 36.0 54.0 0.08 1.92 0.72 98 1006.5
20181117120209 49 161 34.0 50.0 0.06 1.91 0.70 98 1006.3
20181117114709 49 151 37.0 50.0 0.06 1.89 0.69 98 1006.2
20181117113114 49 140 34.0 51.0 0.06 1.87 0.66 98 1005.9
20181117111625 50 147 39.0 51.0 0.04 1.84 0.64 98 1005.7
20181117110146 49 141 33.0 48.0 0.06 1.84 0.64 98 1005.6
20181117104708 49 137 30.0 43.0 0.06 1.83 0.62 98 1005.6
20181117103115 49 150 31.0 43.0 0.06 1.81 0.61 99 1005.5
20181117100111 49 157 27.0 42.0 0.06 1.79 0.57 99 1005.5
20181117094614 49 127 30.0 44.0 0.04 1.76 0.56 99 1005.4
20181117093102 49 145 27.0 46.0 0.05 1.76 0.55 98 1005.2
20181117091544 49 154 28.0 47.0 0.05 1.75 0.54 98 1005.1
20181117090057 49 141 29.0 54.0 0.03 1.73 0.53 98 1005.0
20181117084622 49 144 30.0 44.0 0.02 1.72 0.52 98 1004.9
20181117083056 49 163 30.0 45.0 0.02 1.71 0.50 98 1004.8
20181117081532 50 144 36.0 51.0 0.02 1.70 0.50 98 1004.5
20181117080038 50 144 36.0 47.0 0.04 1.70 0.50 98 1004.4
20181117074547 50 142 33.0 45.0 0.05 1.70 0.50 98 1004.5
20181117073035 50 117 35.0 55.0 0.06 1.69 0.49 98 1004.5
20181117071551 50 159 32.0 50.0 0.06 1.68 0.47 98 1004.2
20181117070124 50 148 35.0 50.0 0.06 1.66 0.46 98 1004.1
20181117064529 50 166 34.0 48.0 0.07 1.65 0.45 98 1004.0
20181117063032 50 128 33.0 50.0 0.07 1.64 0.43 98 1003.9
20181117061535 50 136 33.0 49.0 0.06 1.61 0.41 98 1003.9
20181117060021 50 146 31.0 48.0 0.06 1.60 0.39 98 1003.7
20181117054519 50 150 31.0 46.0 0.06 1.58 0.38 98 1003.4
20181117053013 50 127 32.0 46.0 0.05 1.56 0.35 98 1003.3
20181117051509 50 135 28.0 43.0 0.06 1.55 0.35 98 1003.3
20181117050012 50 147 28.0 41.0 0.06 1.54 0.33 98 1003.2
20181117044506 50 132 32.0 45.0 0.07 1.53 0.32 98 1003.0